SWR8BC LSZH-LPPR

Flight info

Callsign SWR8BC
Flight time 2h 5m
Altitude 35000
Route VEBIT1X VEBIT T50 ROTOS Z669 ULMES DCT VADAR DCT NINTU DCT MEBAK DCT REPSI DCT LERGA DCT MINSO DCT NARAK DCT AGN DCT LATEK DCT PPN DCT MIRPO DCT DGO DCT NEA DCT ZMR DCT ADORO DCT INKIT INKIT6C
Aircraft A321/M-SDE3FGHIRWY/LB1

Departure

Time 2026-04-26 09:00
Airport Zürich Airport (LSZH)

Arrival

Time 2026-04-26 11:05
Airport Francisco de Sá Carneiro Airport (LPPR)
Time Latitude Longitude Altitude Speed Heading
2026-04-26 08:06 47.45188 8.55751 1414 ft 0 kts 186°
2026-04-26 08:48 47.45204 8.55754 1415 ft 3 kts 186°
2026-04-26 08:48 47.45222 8.55756 1406 ft 3 kts 186°
2026-04-26 08:49 47.45241 8.55761 1409 ft 3 kts 202°
2026-04-26 08:49 47.45259 8.55770 1407 ft 3 kts 215°
2026-04-26 08:49 47.45270 8.55793 1412 ft 3 kts 278°
2026-04-26 08:49 47.45264 8.55819 1407 ft 3 kts 291°
2026-04-26 08:50 47.45258 8.55845 1413 ft 3 kts 276°
2026-04-26 08:50 47.45257 8.55870 1413 ft 1 kts 276°
2026-04-26 08:52 47.45257 8.55865 1413 ft 2 kts 276°
2026-04-26 08:52 47.45258 8.55846 1413 ft 1 kts 276°
2026-04-26 08:53 47.45261 8.55810 1407 ft 6 kts 276°
2026-04-26 08:53 47.45267 8.55718 1406 ft 12 kts 275°
2026-04-26 08:53 47.45277 8.55601 1409 ft 11 kts 287°
2026-04-26 08:53 47.45331 8.55540 1413 ft 10 kts 335°
2026-04-26 08:54 47.45408 8.55486 1410 ft 17 kts 335°
2026-04-26 08:54 47.45521 8.55409 1412 ft 18 kts 335°
2026-04-26 08:54 47.45610 8.55347 1404 ft 11 kts 335°
2026-04-26 08:54 47.45669 8.55365 1410 ft 8 kts 56°
2026-04-26 08:55 47.45669 8.55429 1401 ft 5 kts 96°
2026-04-26 08:55 47.45664 8.55512 1402 ft 12 kts 95°
2026-04-26 08:55 47.45653 8.55660 1405 ft 15 kts 96°
2026-04-26 08:55 47.45643 8.55799 1409 ft 14 kts 96°
2026-04-26 08:56 47.45630 8.55978 1413 ft 22 kts 96°
2026-04-26 08:56 47.45619 8.56136 1411 ft 23 kts 97°
2026-04-26 08:56 47.45599 8.56420 1414 ft 20 kts 97°
2026-04-26 08:56 47.45585 8.56606 1417 ft 17 kts 95°
2026-04-26 08:57 47.45575 8.56760 1422 ft 14 kts 96°
2026-04-26 08:57 47.45565 8.56901 1420 ft 16 kts 96°
2026-04-26 08:57 47.45580 8.57008 1422 ft 8 kts 37°
2026-04-26 08:57 47.45624 8.57022 1425 ft 9 kts
2026-04-26 08:58 47.45665 8.56984 1424 ft 7 kts 276°
2026-04-26 08:58 47.45665 8.56978 1424 ft 0 kts 275°
2026-04-26 08:59 47.45683 8.56717 1421 ft 64 kts 276°
2026-04-26 08:59 47.45755 8.55716 1406 ft 129 kts 276°
2026-04-26 08:59 47.45872 8.54131 1419 ft 176 kts 276°
2026-04-26 09:00 47.46000 8.52361 2141 ft 170 kts 278°
2026-04-26 09:00 47.46126 8.50610 2786 ft 177 kts 279°
2026-04-26 09:00 47.46250 8.48672 2996 ft 200 kts 272°
2026-04-26 09:00 47.45852 8.46621 3132 ft 223 kts 233°
2026-04-26 09:01 47.44645 8.45046 3359 ft 242 kts 213°
2026-04-26 09:01 47.43269 8.43422 3571 ft 268 kts 224°
2026-04-26 09:01 47.42020 8.41281 4117 ft 278 kts 231°
2026-04-26 09:01 47.40873 8.38945 4985 ft 280 kts 234°
2026-04-26 09:02 47.39769 8.36574 5843 ft 281 kts 234°
2026-04-26 09:02 47.38679 8.34183 6654 ft 281 kts 237°
2026-04-26 09:02 47.37659 8.31726 7424 ft 281 kts 241°
2026-04-26 09:02 47.36753 8.29148 8145 ft 285 kts 245°
2026-04-26 09:03 47.35893 8.26475 8735 ft 292 kts 245°
2026-04-26 09:03 47.35316 8.24676 9186 ft 294 kts 246°
2026-04-26 09:03 47.34423 8.21955 9935 ft 295 kts 245°
2026-04-26 09:03 47.33504 8.19232 10514 ft 301 kts 245°
2026-04-26 09:04 47.32522 8.16372 10648 ft 323 kts 245°
2026-04-26 09:04 47.31445 8.13337 10786 ft 343 kts 244°
2026-04-26 09:04 47.30311 8.10185 11226 ft 351 kts 243°
2026-04-26 09:04 47.29160 8.06997 11852 ft 354 kts 243°
2026-04-26 09:05 47.28003 8.03786 12512 ft 355 kts 244°
2026-04-26 09:05 47.26855 8.00546 13156 ft 357 kts 247°
2026-04-26 09:05 47.25897 7.97170 13795 ft 358 kts 250°
2026-04-26 09:05 47.24953 7.93774 14388 ft 360 kts 249°
2026-04-26 09:06 47.23998 7.90347 14923 ft 363 kts 249°
2026-04-26 09:06 47.23034 7.86902 15476 ft 365 kts 249°
2026-04-26 09:06 47.22063 7.83447 16047 ft 366 kts 248°
2026-04-26 09:06 47.21082 7.79963 16543 ft 369 kts 249°
2026-04-26 09:07 47.20096 7.76458 17031 ft 373 kts 248°
2026-04-26 09:07 47.19019 7.72977 17537 ft 376 kts 243°
2026-04-26 09:07 47.17542 7.69791 18062 ft 379 kts 233°
2026-04-26 09:07 47.15894 7.66744 18545 ft 382 kts 232°
2026-04-26 09:08 47.14233 7.63677 18948 ft 385 kts 233°
2026-04-26 09:08 47.12565 7.60597 19358 ft 386 kts 232°
2026-04-26 09:08 47.10889 7.57500 19757 ft 389 kts 232°
2026-04-26 09:08 47.09204 7.54390 20150 ft 391 kts 232°
2026-04-26 09:09 47.07509 7.51265 20567 ft 392 kts 232°
2026-04-26 09:09 47.05803 7.48129 20949 ft 393 kts 232°
2026-04-26 09:09 47.04093 7.44989 21330 ft 395 kts 232°
2026-04-26 09:09 47.02374 7.41826 21668 ft 397 kts 232°
2026-04-26 09:10 47.00679 7.38715 22160 ft 394 kts 233°
2026-04-26 09:10 46.98943 7.35545 22625 ft 394 kts 232°
2026-04-26 09:10 46.97248 7.32456 23071 ft 394 kts 232°
2026-04-26 09:10 46.95527 7.29316 23491 ft 396 kts 232°
2026-04-26 09:11 46.93803 7.26169 23868 ft 397 kts 232°
2026-04-26 09:11 46.92073 7.23010 24215 ft 398 kts 232°
2026-04-26 09:11 46.90342 7.19854 24583 ft 399 kts 232°
2026-04-26 09:11 46.88606 7.16693 24938 ft 399 kts 232°
2026-04-26 09:12 46.86865 7.13523 25297 ft 400 kts 232°
2026-04-26 09:12 46.85120 7.10343 25665 ft 401 kts 232°
2026-04-26 09:12 46.83374 7.07172 26030 ft 401 kts 232°
2026-04-26 09:12 46.81618 7.03992 26327 ft 404 kts 232°
2026-04-26 09:13 46.79842 7.00784 26581 ft 408 kts 232°
2026-04-26 09:13 46.78046 6.97539 26725 ft 414 kts 232°
2026-04-26 09:13 46.76220 6.94243 26922 ft 419 kts 232°
2026-04-26 09:13 46.74375 6.90925 27193 ft 422 kts 232°
2026-04-26 09:14 46.72532 6.87605 27533 ft 422 kts 232°
2026-04-26 09:14 46.70684 6.84278 27858 ft 424 kts 232°
2026-04-26 09:14 46.68825 6.80943 28172 ft 425 kts 231°
2026-04-26 09:14 46.66952 6.77590 28484 ft 426 kts 232°
2026-04-26 09:15 46.65188 6.74116 28776 ft 427 kts 239°
2026-04-26 09:15 46.63670 6.70456 29069 ft 428 kts 239°
2026-04-26 09:15 46.62132 6.66739 29344 ft 430 kts 239°
2026-04-26 09:15 46.60560 6.62953 29617 ft 431 kts 239°
2026-04-26 09:16 46.59022 6.59273 29878 ft 433 kts 239°
2026-04-26 09:16 46.57450 6.55524 30111 ft 434 kts 239°
2026-04-26 09:16 46.55879 6.51777 30340 ft 435 kts 239°
2026-04-26 09:16 46.54309 6.48036 30641 ft 433 kts 239°
2026-04-26 09:17 46.52739 6.44306 30956 ft 432 kts 238°
2026-04-26 09:17 46.51171 6.40586 31299 ft 430 kts 238°
2026-04-26 09:17 46.49611 6.36891 31578 ft 429 kts 238°
2026-04-26 09:17 46.48054 6.33206 31853 ft 428 kts 238°
2026-04-26 09:18 46.46502 6.29523 32128 ft 427 kts 239°
2026-04-26 09:18 46.44953 6.25848 32402 ft 426 kts 239°
2026-04-26 09:18 46.43406 6.22188 32681 ft 426 kts 239°
2026-04-26 09:18 46.41857 6.18523 32951 ft 425 kts 239°
2026-04-26 09:19 46.40311 6.14875 33217 ft 424 kts 238°
2026-04-26 09:19 46.38769 6.11245 33448 ft 424 kts 238°
2026-04-26 09:19 46.37218 6.07604 33679 ft 424 kts 238°
2026-04-26 09:19 46.35671 6.03981 33935 ft 423 kts 238°
2026-04-26 09:20 46.34122 6.00360 34181 ft 423 kts 238°
2026-04-26 09:20 46.32573 5.96741 34380 ft 423 kts 238°
2026-04-26 09:20 46.31024 5.93122 34592 ft 422 kts 238°
2026-04-26 09:20 46.29478 5.89514 34762 ft 423 kts 238°
2026-04-26 09:21 46.27929 5.85905 34948 ft 423 kts 238°
2026-04-26 09:21 46.26376 5.82290 35119 ft 423 kts 238°
2026-04-26 09:21 46.24826 5.78687 35188 ft 422 kts 238°
2026-04-26 09:22 46.21735 5.71505 35180 ft 420 kts 238°
2026-04-26 09:22 46.18640 5.64341 35181 ft 420 kts 238°
2026-04-26 09:23 46.15538 5.57192 35179 ft 420 kts 238°
2026-04-26 09:23 46.12352 5.50124 35180 ft 421 kts 236°
2026-04-26 09:24 46.09015 5.43252 35179 ft 421 kts 235°
2026-04-26 09:24 46.05633 5.36363 35182 ft 421 kts 236°
2026-04-26 09:25 46.02288 5.29443 35184 ft 421 kts 236°
2026-04-26 09:25 45.98958 5.22518 35189 ft 421 kts 236°
2026-04-26 09:26 45.95612 5.15610 35192 ft 421 kts 236°
2026-04-26 09:26 45.92260 5.08702 35185 ft 422 kts 236°
2026-04-26 09:27 45.88894 5.01781 35183 ft 423 kts 236°
2026-04-26 09:27 45.85524 4.94867 35172 ft 423 kts 236°
2026-04-26 09:28 45.82143 4.87956 35182 ft 423 kts 236°
2026-04-26 09:28 45.78760 4.81061 35188 ft 423 kts 236°
2026-04-26 09:29 45.75374 4.74173 35192 ft 423 kts 236°
2026-04-26 09:29 45.71983 4.67288 35183 ft 424 kts 236°
2026-04-26 09:30 45.68596 4.60421 35180 ft 426 kts 236°
2026-04-26 09:30 45.65174 4.53509 35189 ft 426 kts 236°
2026-04-26 09:31 45.61741 4.46585 35202 ft 426 kts 236°
2026-04-26 09:31 45.58307 4.39677 35211 ft 427 kts 236°
2026-04-26 09:32 45.54867 4.32771 35211 ft 426 kts 236°
2026-04-26 09:32 45.51419 4.25871 35209 ft 427 kts 236°
2026-04-26 09:33 45.47958 4.18977 35194 ft 428 kts 236°
2026-04-26 09:33 45.44487 4.12063 35194 ft 429 kts 236°
2026-04-26 09:34 45.41015 4.05156 35192 ft 429 kts 236°
2026-04-26 09:34 45.37526 3.98248 35193 ft 430 kts 236°
2026-04-26 09:35 45.34044 3.91385 35196 ft 430 kts 235°
2026-04-26 09:35 45.30543 3.84495 35193 ft 430 kts 236°
2026-04-26 09:36 45.27037 3.77592 35197 ft 431 kts 236°
2026-04-26 09:36 45.23538 3.70673 35183 ft 431 kts 236°
2026-04-26 09:37 45.20110 3.63686 35186 ft 432 kts 237°
2026-04-26 09:37 45.16688 3.56669 35190 ft 432 kts 237°
2026-04-26 09:38 45.13245 3.49689 35184 ft 432 kts 236°
2026-04-26 09:38 45.09792 3.42735 35196 ft 432 kts 236°
2026-04-26 09:39 45.06336 3.35786 35202 ft 431 kts 236°
2026-04-26 09:39 45.02876 3.28852 35203 ft 431 kts 236°
2026-04-26 09:40 44.99412 3.21927 35201 ft 431 kts 236°
2026-04-26 09:40 44.95974 3.15051 35203 ft 431 kts 236°
2026-04-26 09:41 44.92508 3.08151 35197 ft 430 kts 236°
2026-04-26 09:41 44.89044 3.01267 35194 ft 431 kts 236°
2026-04-26 09:42 44.85538 2.94328 35188 ft 432 kts 236°
2026-04-26 09:42 44.82167 2.87400 35187 ft 432 kts 239°
2026-04-26 09:43 44.78942 2.80269 35189 ft 432 kts 239°
2026-04-26 09:43 44.75726 2.73127 35198 ft 432 kts 239°
2026-04-26 09:44 44.72460 2.66039 35195 ft 432 kts 239°
2026-04-26 09:44 44.69158 2.58953 35190 ft 434 kts 239°
2026-04-26 09:45 44.65851 2.51846 35190 ft 434 kts 239°
2026-04-26 09:45 44.62539 2.44752 35193 ft 435 kts 239°
2026-04-26 09:46 44.59215 2.37646 35195 ft 435 kts 239°
2026-04-26 09:46 44.55890 2.30553 35197 ft 435 kts 239°
2026-04-26 09:47 44.53124 2.24663 35189 ft 435 kts 239°
2026-04-26 09:47 44.49783 2.17573 35188 ft 436 kts 239°
2026-04-26 09:48 44.46433 2.10478 35189 ft 437 kts 239°
2026-04-26 09:48 44.43074 2.03368 35189 ft 437 kts 239°
2026-04-26 09:49 44.39715 1.96264 35182 ft 438 kts 239°
2026-04-26 09:49 44.36348 1.89185 35188 ft 437 kts 239°
2026-04-26 09:50 44.32966 1.82099 35185 ft 438 kts 239°
2026-04-26 09:50 44.29579 1.75005 35187 ft 439 kts 239°
2026-04-26 09:51 44.26240 1.67862 35193 ft 439 kts 240°
2026-04-26 09:51 44.22971 1.60669 35196 ft 439 kts 240°
2026-04-26 09:52 44.19693 1.53486 35191 ft 439 kts 239°
2026-04-26 09:52 44.14723 1.42730 35189 ft 440 kts 239°
2026-04-26 09:53 44.11402 1.35566 35195 ft 441 kts 239°
2026-04-26 09:53 44.08074 1.28400 35196 ft 441 kts 239°
2026-04-26 09:54 44.04735 1.21246 35195 ft 441 kts 239°
2026-04-26 09:54 44.01387 1.14095 35186 ft 441 kts 239°
2026-04-26 09:55 43.98073 1.06995 35188 ft 441 kts 239°
2026-04-26 09:55 43.94722 0.99860 35189 ft 442 kts 239°
2026-04-26 09:56 43.91360 0.92722 35198 ft 442 kts 239°
2026-04-26 09:56 43.87817 0.85745 35196 ft 444 kts 230°
2026-04-26 09:57 43.83697 0.79370 35199 ft 444 kts 230°
2026-04-26 09:57 43.79572 0.73005 35190 ft 444 kts 230°
2026-04-26 09:58 43.75443 0.66644 35194 ft 444 kts 230°
2026-04-26 09:58 43.71311 0.60285 35197 ft 444 kts 230°
2026-04-26 09:59 43.67167 0.53940 35202 ft 446 kts 230°
2026-04-26 09:59 43.62973 0.47509 35206 ft 455 kts 230°
2026-04-26 10:00 43.58702 0.40976 35209 ft 461 kts 229°
2026-04-26 10:00 43.54395 0.34412 35206 ft 462 kts 229°
2026-04-26 10:01 43.50073 0.27832 35213 ft 463 kts 229°
2026-04-26 10:01 43.45737 0.21259 35213 ft 463 kts 229°
2026-04-26 10:02 43.41431 0.14736 35218 ft 464 kts 229°
2026-04-26 10:02 43.37088 0.08174 35219 ft 463 kts 229°
2026-04-26 10:03 43.32747 0.01636 35222 ft 463 kts 229°
2026-04-26 10:03 43.28402 -0.04902 35230 ft 464 kts 229°
2026-04-26 10:04 43.24045 -0.11443 35222 ft 465 kts 229°
2026-04-26 10:04 43.19677 -0.17981 35222 ft 465 kts 229°
2026-04-26 10:05 43.15301 -0.24509 35228 ft 465 kts 229°
2026-04-26 10:05 43.10928 -0.31026 35227 ft 465 kts 229°
2026-04-26 10:06 43.06824 -0.37802 35221 ft 461 kts 243°
2026-04-26 10:06 43.04590 -0.45956 35216 ft 458 kts 253°
2026-04-26 10:07 43.02633 -0.54244 35209 ft 458 kts 253°
2026-04-26 10:07 43.00682 -0.62535 35202 ft 458 kts 253°
2026-04-26 10:08 42.98709 -0.70788 35208 ft 457 kts 253°
2026-04-26 10:08 42.96719 -0.79031 35198 ft 456 kts 253°
2026-04-26 10:09 42.94729 -0.87258 35188 ft 457 kts 253°
2026-04-26 10:09 42.92753 -0.95453 35177 ft 457 kts 253°
2026-04-26 10:10 42.90756 -1.03691 35185 ft 458 kts 252°
2026-04-26 10:10 42.88748 -1.11929 35181 ft 458 kts 253°
2026-04-26 10:11 42.86733 -1.20171 35171 ft 459 kts 253°
2026-04-26 10:11 42.84711 -1.28431 35174 ft 460 kts 252°
2026-04-26 10:12 42.82675 -1.36699 35174 ft 460 kts 252°
2026-04-26 10:12 42.80630 -1.44975 35186 ft 461 kts 252°
2026-04-26 10:13 42.78577 -1.53244 35190 ft 461 kts 252°
2026-04-26 10:13 42.76516 -1.61530 35186 ft 462 kts 252°
2026-04-26 10:14 42.74449 -1.69812 35178 ft 463 kts 252°
2026-04-26 10:14 42.72367 -1.78112 35183 ft 464 kts 252°
2026-04-26 10:15 42.70280 -1.86413 35181 ft 464 kts 252°
2026-04-26 10:15 42.68198 -1.94661 35170 ft 464 kts 252°
2026-04-26 10:16 42.66092 -2.02958 35178 ft 465 kts 252°
2026-04-26 10:16 42.63983 -2.11266 35176 ft 465 kts 252°
2026-04-26 10:17 42.61869 -2.19571 35178 ft 465 kts 252°
2026-04-26 10:17 42.59749 -2.27859 35178 ft 465 kts 252°
2026-04-26 10:18 42.57619 -2.36151 35171 ft 465 kts 252°
2026-04-26 10:18 42.55475 -2.44441 35175 ft 465 kts 251°
2026-04-26 10:19 42.53326 -2.52727 35179 ft 466 kts 252°
2026-04-26 10:19 42.51179 -2.61019 35184 ft 466 kts 252°
2026-04-26 10:20 42.49393 -2.67898 35179 ft 466 kts 251°
2026-04-26 10:20 42.46860 -2.77575 35184 ft 466 kts 251°
2026-04-26 10:21 42.44685 -2.85852 35184 ft 466 kts 251°
2026-04-26 10:21 42.42510 -2.94115 35184 ft 466 kts 251°
2026-04-26 10:22 42.40323 -3.02382 35185 ft 466 kts 251°
2026-04-26 10:22 42.38137 -3.10636 35181 ft 466 kts 251°
2026-04-26 10:23 42.35947 -3.18886 35194 ft 466 kts 251°
2026-04-26 10:23 42.33747 -3.27136 35199 ft 467 kts 251°
2026-04-26 10:24 42.31539 -3.35383 35210 ft 467 kts 251°
2026-04-26 10:24 42.29321 -3.43638 35214 ft 467 kts 251°
2026-04-26 10:25 42.27097 -3.51890 35226 ft 467 kts 251°
2026-04-26 10:25 42.24867 -3.60135 35227 ft 467 kts 251°
2026-04-26 10:26 42.22635 -3.68362 35220 ft 467 kts 250°
2026-04-26 10:26 42.20394 -3.76586 35179 ft 467 kts 250°
2026-04-26 10:27 42.18142 -3.84804 35179 ft 467 kts 251°
2026-04-26 10:27 42.15895 -3.93013 35183 ft 467 kts 251°
2026-04-26 10:28 42.13640 -4.01231 35183 ft 466 kts 251°
2026-04-26 10:28 42.11396 -4.09372 35179 ft 466 kts 250°
2026-04-26 10:29 42.09133 -4.17559 35177 ft 467 kts 250°
2026-04-26 10:29 42.06859 -4.25745 35178 ft 467 kts 250°
2026-04-26 10:30 42.04945 -4.32603 35179 ft 467 kts 250°
2026-04-26 10:30 42.02658 -4.40778 35179 ft 467 kts 250°
2026-04-26 10:31 42.00388 -4.48894 35179 ft 467 kts 250°
2026-04-26 10:31 41.98093 -4.57057 35178 ft 467 kts 250°
2026-04-26 10:32 41.95795 -4.65202 35176 ft 466 kts 250°
2026-04-26 10:32 41.93491 -4.73345 35187 ft 466 kts 250°
2026-04-26 10:33 41.91175 -4.81494 35195 ft 466 kts 250°
2026-04-26 10:33 41.88859 -4.89627 35196 ft 466 kts 250°
2026-04-26 10:34 41.86537 -4.97752 35192 ft 466 kts 250°
2026-04-26 10:34 41.84211 -5.05857 35195 ft 465 kts 250°
2026-04-26 10:35 41.81885 -5.13954 35199 ft 465 kts 250°
2026-04-26 10:35 41.79556 -5.22040 35194 ft 465 kts 250°
2026-04-26 10:36 41.77219 -5.30114 35188 ft 465 kts 250°
2026-04-26 10:36 41.74878 -5.38176 35190 ft 464 kts 250°
2026-04-26 10:37 41.72538 -5.46217 35188 ft 463 kts 250°
2026-04-26 10:37 41.70193 -5.54229 35196 ft 462 kts 250°
2026-04-26 10:38 41.67849 -5.62227 35191 ft 462 kts 250°
2026-04-26 10:38 41.65517 -5.70164 35190 ft 461 kts 250°
2026-04-26 10:39 41.63167 -5.78153 35193 ft 460 kts 250°
2026-04-26 10:39 41.60817 -5.86108 35188 ft 460 kts 250°
2026-04-26 10:40 41.58458 -5.94053 35171 ft 460 kts 249°
2026-04-26 10:40 41.56090 -6.01985 35177 ft 460 kts 249°
2026-04-26 10:41 41.53724 -6.09913 35178 ft 460 kts 249°
2026-04-26 10:41 41.51361 -6.17830 35182 ft 458 kts 249°
2026-04-26 10:42 41.48992 -6.25708 35177 ft 457 kts 249°
2026-04-26 10:42 41.47244 -6.33813 35160 ft 455 kts 258°
2026-04-26 10:43 41.45772 -6.42009 35161 ft 454 kts 257°
2026-04-26 10:43 41.44291 -6.50186 35127 ft 448 kts 257°
2026-04-26 10:44 41.43563 -6.54170 34851 ft 438 kts 257°
2026-04-26 10:44 41.42842 -6.58086 34338 ft 434 kts 257°
2026-04-26 10:44 41.42119 -6.61992 33647 ft 434 kts 257°
2026-04-26 10:44 41.41398 -6.65899 32963 ft 433 kts 257°
2026-04-26 10:45 41.40693 -6.69735 32412 ft 430 kts 257°
2026-04-26 10:45 41.39975 -6.73642 31849 ft 427 kts 257°
2026-04-26 10:45 41.39280 -6.77419 31287 ft 424 kts 257°
2026-04-26 10:45 41.38579 -6.81215 30744 ft 421 kts 257°
2026-04-26 10:46 41.37882 -6.84996 30198 ft 419 kts 256°
2026-04-26 10:46 41.37185 -6.88743 29622 ft 415 kts 256°
2026-04-26 10:46 41.36493 -6.92453 29045 ft 411 kts 256°
2026-04-26 10:46 41.35806 -6.96125 28488 ft 407 kts 256°
2026-04-26 10:47 41.35124 -6.99766 27902 ft 404 kts 256°
2026-04-26 10:47 41.34444 -7.03383 27305 ft 402 kts 256°
2026-04-26 10:47 41.33769 -7.06981 26703 ft 400 kts 256°
2026-04-26 10:47 41.33098 -7.10556 26122 ft 397 kts 256°
2026-04-26 10:48 41.32430 -7.14105 25550 ft 394 kts 256°
2026-04-26 10:48 41.31730 -7.17616 24992 ft 391 kts 254°
2026-04-26 10:48 41.30939 -7.21078 24379 ft 390 kts 252°
2026-04-26 10:48 41.30092 -7.24486 23919 ft 386 kts 251°
2026-04-26 10:49 41.29228 -7.27841 23431 ft 381 kts 251°
2026-04-26 10:49 41.28374 -7.31145 22999 ft 375 kts 251°
2026-04-26 10:49 41.27539 -7.34422 22566 ft 373 kts 252°
2026-04-26 10:49 41.26721 -7.37688 22132 ft 371 kts 252°
2026-04-26 10:50 41.25918 -7.40934 21697 ft 369 kts 252°
2026-04-26 10:50 41.25391 -7.43076 21417 ft 367 kts 252°
2026-04-26 10:50 41.24336 -7.47372 20820 ft 364 kts 252°
2026-04-26 10:50 41.23552 -7.50555 20385 ft 362 kts 252°
2026-04-26 10:51 41.22768 -7.53716 19936 ft 359 kts 252°
2026-04-26 10:51 41.21207 -7.59971 19080 ft 355 kts 252°
2026-04-26 10:51 41.20432 -7.63084 18651 ft 355 kts 252°
2026-04-26 10:52 41.19660 -7.66192 18186 ft 354 kts 252°
2026-04-26 10:52 41.18883 -7.69308 17753 ft 356 kts 252°
2026-04-26 10:52 41.18103 -7.72428 17322 ft 356 kts 251°
2026-04-26 10:52 41.17330 -7.75510 16907 ft 355 kts 251°
2026-04-26 10:53 41.16552 -7.78606 16484 ft 353 kts 251°
2026-04-26 10:53 41.15771 -7.81719 16061 ft 350 kts 251°
2026-04-26 10:53 41.15016 -7.84729 15652 ft 348 kts 251°
2026-04-26 10:54 41.13494 -7.90786 14835 ft 344 kts 251°
2026-04-26 10:54 41.12736 -7.93787 14424 ft 341 kts 251°
2026-04-26 10:54 41.11984 -7.96760 14004 ft 339 kts 251°
2026-04-26 10:54 41.11234 -7.99719 13573 ft 338 kts 251°
2026-04-26 10:55 41.10488 -8.02665 13160 ft 336 kts 251°
2026-04-26 10:55 41.09745 -8.05589 12741 ft 333 kts 251°
2026-04-26 10:55 41.09009 -8.08485 12333 ft 330 kts 251°
2026-04-26 10:55 41.08274 -8.11372 11911 ft 329 kts 251°
2026-04-26 10:56 41.07542 -8.14248 11509 ft 329 kts 251°
2026-04-26 10:56 41.06811 -8.17109 11087 ft 326 kts 251°
2026-04-26 10:56 41.06085 -8.19950 10684 ft 324 kts 251°
2026-04-26 10:56 41.05376 -8.22720 10539 ft 310 kts 250°
2026-04-26 10:57 41.04701 -8.25347 10327 ft 301 kts 250°
2026-04-26 10:57 41.04028 -8.27972 10146 ft 301 kts 251°
2026-04-26 10:57 41.03345 -8.30642 9699 ft 304 kts 250°
2026-04-26 10:57 41.02738 -8.33268 9350 ft 299 kts 257°
2026-04-26 10:58 41.02317 -8.35947 8917 ft 297 kts 257°
2026-04-26 10:58 41.01891 -8.38617 8445 ft 296 kts 257°
2026-04-26 10:58 41.01464 -8.41272 8008 ft 294 kts 257°
2026-04-26 10:58 41.01038 -8.43905 7577 ft 292 kts 257°
2026-04-26 10:59 41.00612 -8.46514 7184 ft 289 kts 257°
2026-04-26 10:59 41.00189 -8.49105 6782 ft 286 kts 257°
2026-04-26 10:59 40.99793 -8.51675 6380 ft 283 kts 257°
2026-04-26 10:59 40.99418 -8.54206 5788 ft 279 kts 258°
2026-04-26 11:00 40.99067 -8.56717 5005 ft 276 kts 262°
2026-04-26 11:00 40.99311 -8.59224 4402 ft 278 kts 293°
2026-04-26 11:00 41.00470 -8.61221 4045 ft 274 kts 325°
2026-04-26 11:00 41.02169 -8.62176 3948 ft 260 kts 348°
2026-04-26 11:01 41.03919 -8.62665 3705 ft 254 kts 349°
2026-04-26 11:01 41.05634 -8.63124 3458 ft 249 kts 350°
2026-04-26 11:01 41.07316 -8.63566 3227 ft 242 kts 350°
2026-04-26 11:01 41.08927 -8.63983 3059 ft 230 kts 350°
2026-04-26 11:02 41.10445 -8.64378 2999 ft 222 kts 350°
2026-04-26 11:02 41.11952 -8.64768 2869 ft 220 kts 350°
2026-04-26 11:02 41.13422 -8.65149 2616 ft 211 kts 350°
2026-04-26 11:02 41.14834 -8.65516 2238 ft 202 kts 350°
2026-04-26 11:03 41.16186 -8.65868 1863 ft 193 kts 349°
2026-04-26 11:03 41.17470 -8.66202 1550 ft 181 kts 349°
2026-04-26 11:03 41.18651 -8.66511 1238 ft 167 kts 348°
2026-04-26 11:03 41.19743 -8.66792 1010 ft 153 kts 348°
2026-04-26 11:04 41.20758 -8.67050 802 ft 146 kts 347°
2026-04-26 11:04 41.21739 -8.67314 611 ft 144 kts 347°
2026-04-26 11:04 41.22754 -8.67589 408 ft 150 kts 346°
2026-04-26 11:04 41.23768 -8.67848 229 ft 144 kts 347°
2026-04-26 11:05 41.24596 -8.68071 207 ft 94 kts 348°
2026-04-26 11:05 41.24979 -8.68169 190 ft 37 kts 352°
2026-04-26 11:05 41.25185 -8.68145 183 ft 23 kts 16°
2026-04-26 11:05 41.25262 -8.68110 180 ft 10 kts 19°
2026-04-26 11:06 41.25271 -8.68106 179 ft 0 kts 19°
2026-04-26 11:06 41.25273 -8.68104 179 ft 2 kts 26°
2026-04-26 11:06 41.25279 -8.68027 181 ft 7 kts 134°
2026-04-26 11:06 41.25245 -8.68009 183 ft 4 kts 169°
2026-04-26 11:07 41.25212 -8.68000 188 ft 7 kts 169°
2026-04-26 11:07 41.25152 -8.67985 196 ft 11 kts 169°
2026-04-26 11:07 41.25064 -8.67961 191 ft 15 kts 169°
2026-04-26 11:07 41.24941 -8.67930 198 ft 19 kts 168°
2026-04-26 11:08 41.24835 -8.67879 214 ft 14 kts 151°
2026-04-26 11:08 41.24747 -8.67825 210 ft 17 kts 164°
2026-04-26 11:08 41.24614 -8.67788 218 ft 22 kts 168°
2026-04-26 11:08 41.24443 -8.67743 223 ft 27 kts 168°
2026-04-26 11:09 41.24295 -8.67686 232 ft 17 kts 142°
2026-04-26 11:09 41.24224 -8.67587 237 ft 12 kts 150°
2026-04-26 11:09 41.24120 -8.67553 238 ft 21 kts 169°
2026-04-26 11:09 41.23973 -8.67515 238 ft 22 kts 169°
2026-04-26 11:10 41.23827 -8.67476 239 ft 21 kts 169°
2026-04-26 11:10 41.23686 -8.67438 238 ft 19 kts 169°
2026-04-26 11:10 41.23592 -8.67394 239 ft 12 kts 127°
2026-04-26 11:10 41.23575 -8.67327 242 ft 4 kts 107°
2026-04-26 11:11 41.23570 -8.67308 243 ft 1 kts 109°
2026-04-26 11:11 41.23565 -8.67291 244 ft 3 kts 109°
2026-04-26 11:11 41.23555 -8.67250 245 ft 4 kts 109°
2026-04-26 11:11 41.23551 -8.67238 245 ft 0 kts 109°
2026-04-26 11:12 41.23550 -8.67234 245 ft 0 kts 109°